owner,sensor,date,latitude,longitude,air_pressure(mBar),qcFlag 
TABS,ioos:station:wmo:42043:1,2011-02-01T00:00:00Z,28.9818,-94.9186,1010.89,11111222 
TABS,ioos:station:wmo:42043:1,2011-02-01T00:30:00Z,28.9818,-94.9186,1010.83,11111222 
TABS,ioos:station:wmo:42043:1,2011-02-01T01:00:00Z,28.9818,-94.9186,1010.62,11111222 
TABS,ioos:station:wmo:42043:1,2011-02-01T01:30:00Z,28.9818,-94.9186,1010.38,11111222 
TABS,ioos:station:wmo:42043:1,2011-02-01T02:00:00Z,28.9818,-94.9186,1010.32,11111222 
TABS,ioos:station:wmo:42043:1,2011-02-01T02:30:00Z,28.9818,-94.9186,1010.09,11111222 
TABS,ioos:station:wmo:42043:1,2011-02-01T03:00:00Z,28.9818,-94.9186,1010.2,11111222 
TABS,ioos:station:wmo:42043:1,2011-02-01T03:30:00Z,28.9818,-94.9186,1010.09,11111222 
TABS,ioos:station:wmo:42043:1,2011-02-01T04:00:00Z,28.9818,-94.9186,1009.98,11111222 
TABS,ioos:station:wmo:42043:1,2011-02-01T04:30:00Z,28.9818,-94.9186,1009.47,11111222 
TABS,ioos:station:wmo:42043:1,2011-02-01T05:00:00Z,28.9818,-94.9186,1009.21,11111222 
TABS,ioos:station:wmo:42043:1,2011-02-01T05:30:00Z,28.9818,-94.9186,1008.84,11111222 
TABS,ioos:station:wmo:42043:1,2011-02-01T06:00:00Z,28.9818,-94.9186,1008.15,11111222 
TABS,ioos:station:wmo:42043:1,2011-02-01T06:30:00Z,28.9818,-94.9186,1007.95,11111222 
TABS,ioos:station:wmo:42043:1,2011-02-01T07:00:00Z,28.9818,-94.9186,1007.62,11111222 
TABS,ioos:station:wmo:42043:1,2011-02-01T07:30:00Z,28.9818,-94.9186,1007.32,11111222 
TABS,ioos:station:wmo:42043:1,2011-02-01T08:00:00Z,28.9818,-94.9186,1006.76,11111222 
TABS,ioos:station:wmo:42043:1,2011-02-01T08:30:00Z,28.9818,-94.9186,1006.54,11111222 
TABS,ioos:station:wmo:42043:1,2011-02-01T09:00:00Z,28.9818,-94.9186,1006.14,11111222 
TABS,ioos:station:wmo:42043:1,2011-02-01T09:30:00Z,28.9818,-94.9186,1005.73,11111222 
TABS,ioos:station:wmo:42043:1,2011-02-01T10:00:00Z,28.9818,-94.9186,1005.07,11111222 
TABS,ioos:station:wmo:42043:1,2011-02-01T10:30:00Z,28.9818,-94.9186,1005.01,11111222 
TABS,ioos:station:wmo:42043:1,2011-02-01T11:00:00Z,28.9818,-94.9186,1004.76,11111222 
TABS,ioos:station:wmo:42043:1,2011-02-01T11:30:00Z,28.9818,-94.9186,1004.84,11111222 
TABS,ioos:station:wmo:42043:1,2011-02-01T12:00:00Z,28.9818,-94.9186,1005.04,11111222 
TABS,ioos:station:wmo:42043:1,2011-02-01T12:30:00Z,28.9818,-94.9186,1004.98,11111222 
TABS,ioos:station:wmo:42043:1,2011-02-01T13:00:00Z,28.9818,-94.9186,1005.57,11111222 
TABS,ioos:station:wmo:42043:1,2011-02-01T13:30:00Z,28.9818,-94.9186,1005.66,11111222 
TABS,ioos:station:wmo:42043:1,2011-02-01T14:00:00Z,28.9818,-94.9186,1008.38,11111222 
TABS,ioos:station:wmo:42043:1,2011-02-01T14:30:00Z,28.9818,-94.9186,1009.41,11111222 
TABS,ioos:station:wmo:42043:1,2011-02-01T15:00:00Z,28.9818,-94.9186,1010.07,11111222 
TABS,ioos:station:wmo:42043:1,2011-02-01T15:30:00Z,28.9818,-94.9186,1011.49,11111222 
TABS,ioos:station:wmo:42043:1,2011-02-01T16:00:00Z,28.9818,-94.9186,1012.31,11111222 
TABS,ioos:station:wmo:42043:1,2011-02-01T16:30:00Z,28.9818,-94.9186,1013.59,11111222 
TABS,ioos:station:wmo:42043:1,2011-02-01T17:00:00Z,28.9818,-94.9186,1014.1,11111222 
TABS,ioos:station:wmo:42043:1,2011-02-01T17:30:00Z,28.9818,-94.9186,1014.42,11111222 
TABS,ioos:station:wmo:42043:1,2011-02-01T18:00:00Z,28.9818,-94.9186,1014.38,11111222 
TABS,ioos:station:wmo:42043:1,2011-02-01T18:30:00Z,28.9818,-94.9186,1014.62,11111222 
TABS,ioos:station:wmo:42043:1,2011-02-01T19:00:00Z,28.9818,-94.9186,1014.8,11111222 
TABS,ioos:station:wmo:42043:1,2011-02-01T19:30:00Z,28.9818,-94.9186,1014.69,11111222 
TABS,ioos:station:wmo:42043:1,2011-02-01T20:00:00Z,28.9818,-94.9186,1014.49,11111222 
TABS,ioos:station:wmo:42043:1,2011-02-01T20:30:00Z,28.9818,-94.9186,1014.92,11111222 
TABS,ioos:station:wmo:42043:1,2011-02-01T21:00:00Z,28.9818,-94.9186,1014.9,11111222 
TABS,ioos:station:wmo:42043:1,2011-02-01T21:30:00Z,28.9818,-94.9186,1015.33,11111222 
TABS,ioos:station:wmo:42043:1,2011-02-01T22:00:00Z,28.9818,-94.9186,1015.67,11111222 
TABS,ioos:station:wmo:42043:1,2011-02-01T22:30:00Z,28.9818,-94.9186,1016.02,11111222 
TABS,ioos:station:wmo:42043:1,2011-02-01T23:00:00Z,28.9818,-94.9186,1016.67,11111222 
TABS,ioos:station:wmo:42043:1,2011-02-01T23:30:00Z,28.9818,-94.9186,1017.67,11111222 
TABS,ioos:station:wmo:42043:1,2011-02-02T00:00:00Z,28.9818,-94.9186,1018.36,11111222 
TABS,ioos:station:wmo:42043:1,2011-02-02T00:30:00Z,28.9818,-94.9186,1019.42,11111222 
TABS,ioos:station:wmo:42043:1,2011-02-02T01:00:00Z,28.9818,-94.9186,1020.03,11111222 
TABS,ioos:station:wmo:42043:1,2011-02-02T01:30:00Z,28.9818,-94.9186,1020.64,11111222 
TABS,ioos:station:wmo:42043:1,2011-02-02T02:00:00Z,28.9818,-94.9186,1021.37,11111222 
TABS,ioos:station:wmo:42043:1,2011-02-02T02:30:00Z,28.9818,-94.9186,1021.9,11111222 
TABS,ioos:station:wmo:42043:1,2011-02-02T03:00:00Z,28.9818,-94.9186,1021.78,11111222 
TABS,ioos:station:wmo:42043:1,2011-02-02T03:30:00Z,28.9818,-94.9186,1022.92,11111222 
TABS,ioos:station:wmo:42043:1,2011-02-02T04:00:00Z,28.9818,-94.9186,1023.47,11111222 
TABS,ioos:station:wmo:42043:1,2011-02-02T04:30:00Z,28.9818,-94.9186,1023.63,11111222 
TABS,ioos:station:wmo:42043:1,2011-02-02T05:00:00Z,28.9818,-94.9186,1023.31,11111222 
TABS,ioos:station:wmo:42043:1,2011-02-02T05:30:00Z,28.9818,-94.9186,1022.49,11111222 
TABS,ioos:station:wmo:42043:1,2011-02-02T06:00:00Z,28.9818,-94.9186,1023.25,11111222 
TABS,ioos:station:wmo:42043:1,2011-02-02T06:30:00Z,28.9818,-94.9186,1024.17,11111222 
TABS,ioos:station:wmo:42043:1,2011-02-02T07:00:00Z,28.9818,-94.9186,1024.73,11111222 
TABS,ioos:station:wmo:42043:1,2011-02-02T07:30:00Z,28.9818,-94.9186,1025.33,11111222 
TABS,ioos:station:wmo:42043:1,2011-02-02T08:00:00Z,28.9818,-94.9186,1025.71,11111222 
TABS,ioos:station:wmo:42043:1,2011-02-02T08:30:00Z,28.9818,-94.9186,1026.94,11111222 
TABS,ioos:station:wmo:42043:1,2011-02-02T09:00:00Z,28.9818,-94.9186,1027.18,11111222 
TABS,ioos:station:wmo:42043:1,2011-02-02T09:30:00Z,28.9818,-94.9186,1027.38,11111222 
TABS,ioos:station:wmo:42043:1,2011-02-02T10:00:00Z,28.9818,-94.9186,1027.63,11111222 
TABS,ioos:station:wmo:42043:1,2011-02-02T10:30:00Z,28.9818,-94.9186,1028.01,11111222 
TABS,ioos:station:wmo:42043:1,2011-02-02T11:00:00Z,28.9818,-94.9186,1028.18,11111222 
TABS,ioos:station:wmo:42043:1,2011-02-02T11:30:00Z,28.9818,-94.9186,1028.59,11111222 
TABS,ioos:station:wmo:42043:1,2011-02-02T12:00:00Z,28.9818,-94.9186,1028.88,11111222 
TABS,ioos:station:wmo:42043:1,2011-02-02T12:30:00Z,28.9818,-94.9186,1029.59,11111222 
TABS,ioos:station:wmo:42043:1,2011-02-02T13:00:00Z,28.9818,-94.9186,1029.64,11111222 
TABS,ioos:station:wmo:42043:1,2011-02-02T13:30:00Z,28.9818,-94.9186,1029.65,11111222 
TABS,ioos:station:wmo:42043:1,2011-02-02T14:00:00Z,28.9818,-94.9186,1030.66,11111222 
TABS,ioos:station:wmo:42043:1,2011-02-02T14:30:00Z,28.9818,-94.9186,1030.67,11111222 
TABS,ioos:station:wmo:42043:1,2011-02-02T15:00:00Z,28.9818,-94.9186,1030.73,11111222 
TABS,ioos:station:wmo:42043:1,2011-02-02T15:30:00Z,28.9818,-94.9186,1030.88,11111222 
TABS,ioos:station:wmo:42043:1,2011-02-02T16:00:00Z,28.9818,-94.9186,1030.82,11111222 
TABS,ioos:station:wmo:42043:1,2011-02-02T16:30:00Z,28.9818,-94.9186,1031.25,11111222 
TABS,ioos:station:wmo:42043:1,2011-02-02T17:00:00Z,28.9818,-94.9186,1031.08,11111222 
TABS,ioos:station:wmo:42043:1,2011-02-02T17:30:00Z,28.9818,-94.9186,1031.02,11111222 
TABS,ioos:station:wmo:42043:1,2011-02-02T18:00:00Z,28.9818,-94.9186,1030.58,11111222 
TABS,ioos:station:wmo:42043:1,2011-02-02T18:30:00Z,28.9818,-94.9186,1029.96,11111222 
TABS,ioos:station:wmo:42043:1,2011-02-02T19:00:00Z,28.9818,-94.9186,1029.81,11111222 
TABS,ioos:station:wmo:42043:1,2011-02-02T19:30:00Z,28.9818,-94.9186,1029.38,11111222 
TABS,ioos:station:wmo:42043:1,2011-02-02T20:00:00Z,28.9818,-94.9186,1028.97,11111222 
TABS,ioos:station:wmo:42043:1,2011-02-02T20:30:00Z,28.9818,-94.9186,1028.78,11111222 
TABS,ioos:station:wmo:42043:1,2011-02-02T21:00:00Z,28.9818,-94.9186,1028.51,11111222 
TABS,ioos:station:wmo:42043:1,2011-02-02T21:30:00Z,28.9818,-94.9186,1028.27,11111222 
TABS,ioos:station:wmo:42043:1,2011-02-02T22:00:00Z,28.9818,-94.9186,1028.07,11111222 
TABS,ioos:station:wmo:42043:1,2011-02-02T22:30:00Z,28.9818,-94.9186,1028.46,11111222 
TABS,ioos:station:wmo:42043:1,2011-02-02T23:00:00Z,28.9818,-94.9186,1028.52,11111222 
TABS,ioos:station:wmo:42043:1,2011-02-02T23:30:00Z,28.9818,-94.9186,1028.69,11111222 
TABS,ioos:station:wmo:42043:1,2011-02-03T00:00:00Z,28.9818,-94.9186,1028.95,11111222 
TABS,ioos:station:wmo:42043:1,2011-02-03T00:30:00Z,28.9818,-94.9186,1029.38,11111222 
TABS,ioos:station:wmo:42043:1,2011-02-03T01:00:00Z,28.9818,-94.9186,1029.56,11111222 
TABS,ioos:station:wmo:42043:1,2011-02-03T01:30:00Z,28.9818,-94.9186,1030.01,11111222 
TABS,ioos:station:wmo:42043:1,2011-02-03T02:00:00Z,28.9818,-94.9186,1030.01,11111222 
TABS,ioos:station:wmo:42043:1,2011-02-03T02:30:00Z,28.9818,-94.9186,1029.97,11111222 
TABS,ioos:station:wmo:42043:1,2011-02-03T03:00:00Z,28.9818,-94.9186,1030.35,11111222 
TABS,ioos:station:wmo:42043:1,2011-02-03T03:30:00Z,28.9818,-94.9186,1030.12,11111222 
TABS,ioos:station:wmo:42043:1,2011-02-03T04:00:00Z,28.9818,-94.9186,1030.7,11111222 
TABS,ioos:station:wmo:42043:1,2011-02-03T04:30:00Z,28.9818,-94.9186,1030.33,11111222 
TABS,ioos:station:wmo:42043:1,2011-02-03T05:00:00Z,28.9818,-94.9186,1030.19,11111222 
TABS,ioos:station:wmo:42043:1,2011-02-03T05:30:00Z,28.9818,-94.9186,1030.36,11111222 
TABS,ioos:station:wmo:42043:1,2011-02-03T06:00:00Z,28.9818,-94.9186,1030.85,11111222 
TABS,ioos:station:wmo:42043:1,2011-02-03T06:30:00Z,28.9818,-94.9186,1030.67,11111222 
TABS,ioos:station:wmo:42043:1,2011-02-03T07:00:00Z,28.9818,-94.9186,1030.38,11111222 
TABS,ioos:station:wmo:42043:1,2011-02-03T07:30:00Z,28.9818,-94.9186,1030.35,11111222 
TABS,ioos:station:wmo:42043:1,2011-02-03T08:00:00Z,28.9818,-94.9186,1030.44,11111222 
TABS,ioos:station:wmo:42043:1,2011-02-03T08:30:00Z,28.9818,-94.9186,1030.42,11111222 
TABS,ioos:station:wmo:42043:1,2011-02-03T09:00:00Z,28.9818,-94.9186,1030.06,11111222 
TABS,ioos:station:wmo:42043:1,2011-02-03T09:30:00Z,28.9818,-94.9186,1029.8,11111222 
TABS,ioos:station:wmo:42043:1,2011-02-03T10:00:00Z,28.9818,-94.9186,1029.77,11111222 
TABS,ioos:station:wmo:42043:1,2011-02-03T10:30:00Z,28.9818,-94.9186,1029.58,11111222 
TABS,ioos:station:wmo:42043:1,2011-02-03T11:00:00Z,28.9818,-94.9186,1029.37,11111222 
TABS,ioos:station:wmo:42043:1,2011-02-03T11:30:00Z,28.9818,-94.9186,1029.82,11111222 
TABS,ioos:station:wmo:42043:1,2011-02-03T12:00:00Z,28.9818,-94.9186,1029.54,11111222 
TABS,ioos:station:wmo:42043:1,2011-02-03T12:30:00Z,28.9818,-94.9186,1030.19,11111222 
TABS,ioos:station:wmo:42043:1,2011-02-03T13:00:00Z,28.9818,-94.9186,1030.69,11111222 
TABS,ioos:station:wmo:42043:1,2011-02-03T13:30:00Z,28.9818,-94.9186,1030.77,11111222 
TABS,ioos:station:wmo:42043:1,2011-02-03T14:00:00Z,28.9818,-94.9186,1031.21,11111222 
TABS,ioos:station:wmo:42043:1,2011-02-03T14:30:00Z,28.9818,-94.9186,1031.0,11111222 
TABS,ioos:station:wmo:42043:1,2011-02-03T15:00:00Z,28.9818,-94.9186,1031.13,11111222 
TABS,ioos:station:wmo:42043:1,2011-02-03T15:30:00Z,28.9818,-94.9186,1030.93,11111222 
TABS,ioos:station:wmo:42043:1,2011-02-03T16:00:00Z,28.9818,-94.9186,1030.75,11111222 
TABS,ioos:station:wmo:42043:1,2011-02-03T16:30:00Z,28.9818,-94.9186,1030.73,11111222 
TABS,ioos:station:wmo:42043:1,2011-02-03T17:00:00Z,28.9818,-94.9186,1031.19,11111222 
TABS,ioos:station:wmo:42043:1,2011-02-03T17:30:00Z,28.9818,-94.9186,1031.08,11111222 
TABS,ioos:station:wmo:42043:1,2011-02-03T18:00:00Z,28.9818,-94.9186,1029.94,11111222 
TABS,ioos:station:wmo:42043:1,2011-02-03T18:30:00Z,28.9818,-94.9186,1029.48,11111222 
TABS,ioos:station:wmo:42043:1,2011-02-03T19:00:00Z,28.9818,-94.9186,1028.78,11111222 
TABS,ioos:station:wmo:42043:1,2011-02-03T19:30:00Z,28.9818,-94.9186,1028.26,11111222 
TABS,ioos:station:wmo:42043:1,2011-02-03T20:00:00Z,28.9818,-94.9186,1027.3,11111222 
TABS,ioos:station:wmo:42043:1,2011-02-03T20:30:00Z,28.9818,-94.9186,1027.47,11111222 
TABS,ioos:station:wmo:42043:1,2011-02-03T21:00:00Z,28.9818,-94.9186,1027.17,11111222 
TABS,ioos:station:wmo:42043:1,2011-02-03T21:30:00Z,28.9818,-94.9186,1026.39,11111222 
TABS,ioos:station:wmo:42043:1,2011-02-03T22:00:00Z,28.9818,-94.9186,1026.46,11111222 
TABS,ioos:station:wmo:42043:1,2011-02-03T22:30:00Z,28.9818,-94.9186,1025.96,11111222 
TABS,ioos:station:wmo:42043:1,2011-02-03T23:00:00Z,28.9818,-94.9186,1025.64,11111222 
TABS,ioos:station:wmo:42043:1,2011-02-03T23:30:00Z,28.9818,-94.9186,1025.63,11111222 
TABS,ioos:station:wmo:42043:1,2011-02-04T00:00:00Z,28.9818,-94.9186,1025.72,11111222 
TABS,ioos:station:wmo:42043:1,2011-02-04T00:30:00Z,28.9818,-94.9186,1025.21,11111222 
TABS,ioos:station:wmo:42043:1,2011-02-04T01:00:00Z,28.9818,-94.9186,1025.02,11111222 
TABS,ioos:station:wmo:42043:1,2011-02-04T01:30:00Z,28.9818,-94.9186,1025.74,11111222 
TABS,ioos:station:wmo:42043:1,2011-02-04T02:00:00Z,28.9818,-94.9186,1024.99,11111222 
TABS,ioos:station:wmo:42043:1,2011-02-04T02:30:00Z,28.9818,-94.9186,1025.21,11111222 
TABS,ioos:station:wmo:42043:1,2011-02-04T03:00:00Z,28.9818,-94.9186,1025.13,11111222 
TABS,ioos:station:wmo:42043:1,2011-02-04T03:30:00Z,28.9818,-94.9186,1025.5,11111222 
TABS,ioos:station:wmo:42043:1,2011-02-04T04:00:00Z,28.9818,-94.9186,1025.68,11111222 
TABS,ioos:station:wmo:42043:1,2011-02-04T04:30:00Z,28.9818,-94.9186,1025.12,11111222 
TABS,ioos:station:wmo:42043:1,2011-02-04T05:00:00Z,28.9818,-94.9186,1025.31,11111222 
TABS,ioos:station:wmo:42043:1,2011-02-04T05:30:00Z,28.9818,-94.9186,1025.51,11111222 
TABS,ioos:station:wmo:42043:1,2011-02-04T06:00:00Z,28.9818,-94.9186,1025.23,11111222 
TABS,ioos:station:wmo:42043:1,2011-02-04T06:30:00Z,28.9818,-94.9186,1025.32,11111222 
TABS,ioos:station:wmo:42043:1,2011-02-04T07:00:00Z,28.9818,-94.9186,1025.3,11111222 
TABS,ioos:station:wmo:42043:1,2011-02-04T07:30:00Z,28.9818,-94.9186,1024.94,11111222 
TABS,ioos:station:wmo:42043:1,2011-02-04T08:00:00Z,28.9818,-94.9186,1024.87,11111222 
TABS,ioos:station:wmo:42043:1,2011-02-04T08:30:00Z,28.9818,-94.9186,1024.66,11111222 
TABS,ioos:station:wmo:42043:1,2011-02-04T09:00:00Z,28.9818,-94.9186,1024.33,11111222 
TABS,ioos:station:wmo:42043:1,2011-02-04T09:30:00Z,28.9818,-94.9186,1024.29,11111222 
TABS,ioos:station:wmo:42043:1,2011-02-04T10:00:00Z,28.9818,-94.9186,1024.41,11111222 
TABS,ioos:station:wmo:42043:1,2011-02-04T10:30:00Z,28.9818,-94.9186,1024.54,11111222 
TABS,ioos:station:wmo:42043:1,2011-02-04T11:00:00Z,28.9818,-94.9186,1024.57,11111222 
TABS,ioos:station:wmo:42043:1,2011-02-04T11:30:00Z,28.9818,-94.9186,1024.55,11111222 
TABS,ioos:station:wmo:42043:1,2011-02-04T12:00:00Z,28.9818,-94.9186,1024.62,11111222 
TABS,ioos:station:wmo:42043:1,2011-02-04T12:30:00Z,28.9818,-94.9186,1024.63,11111222 
TABS,ioos:station:wmo:42043:1,2011-02-04T13:00:00Z,28.9818,-94.9186,1024.81,11111222 
TABS,ioos:station:wmo:42043:1,2011-02-04T13:30:00Z,28.9818,-94.9186,1024.68,11111222 
TABS,ioos:station:wmo:42043:1,2011-02-04T14:00:00Z,28.9818,-94.9186,1024.75,11111222 
TABS,ioos:station:wmo:42043:1,2011-02-04T14:30:00Z,28.9818,-94.9186,1024.61,11111222 
TABS,ioos:station:wmo:42043:1,2011-02-04T15:00:00Z,28.9818,-94.9186,1024.86,11111222 
TABS,ioos:station:wmo:42043:1,2011-02-04T15:30:00Z,28.9818,-94.9186,1024.89,11111222 
TABS,ioos:station:wmo:42043:1,2011-02-04T16:00:00Z,28.9818,-94.9186,1025.23,11111222 
TABS,ioos:station:wmo:42043:1,2011-02-04T16:30:00Z,28.9818,-94.9186,1025.08,11111222 
TABS,ioos:station:wmo:42043:1,2011-02-04T17:00:00Z,28.9818,-94.9186,1024.57,11111222 
TABS,ioos:station:wmo:42043:1,2011-02-04T17:30:00Z,28.9818,-94.9186,1024.06,11111222 
TABS,ioos:station:wmo:42043:1,2011-02-04T18:00:00Z,28.9818,-94.9186,1023.51,11111222 
TABS,ioos:station:wmo:42043:1,2011-02-04T18:30:00Z,28.9818,-94.9186,1022.87,11111222 
TABS,ioos:station:wmo:42043:1,2011-02-04T19:00:00Z,28.9818,-94.9186,1022.35,11111222 
TABS,ioos:station:wmo:42043:1,2011-02-04T19:30:00Z,28.9818,-94.9186,1021.81,11111222 
TABS,ioos:station:wmo:42043:1,2011-02-04T20:00:00Z,28.9818,-94.9186,1021.66,11111222 
TABS,ioos:station:wmo:42043:1,2011-02-04T20:30:00Z,28.9818,-94.9186,1021.57,11111222 
TABS,ioos:station:wmo:42043:1,2011-02-04T21:00:00Z,28.9818,-94.9186,1021.26,11111222 
TABS,ioos:station:wmo:42043:1,2011-02-04T21:30:00Z,28.9818,-94.9186,1020.8,11111222 
TABS,ioos:station:wmo:42043:1,2011-02-04T22:00:00Z,28.9818,-94.9186,1020.69,11111222 
TABS,ioos:station:wmo:42043:1,2011-02-04T22:30:00Z,28.9818,-94.9186,1020.92,11111222 
TABS,ioos:station:wmo:42043:1,2011-02-04T23:00:00Z,28.9818,-94.9186,1020.89,11111222 
TABS,ioos:station:wmo:42043:1,2011-02-04T23:30:00Z,28.9818,-94.9186,1021.29,11111222 
TABS,ioos:station:wmo:42043:1,2011-02-05T00:00:00Z,28.9818,-94.9186,1021.47,11111222 
TABS,ioos:station:wmo:42043:1,2011-02-05T00:30:00Z,28.9818,-94.9186,1021.84,11111222 
TABS,ioos:station:wmo:42043:1,2011-02-05T01:00:00Z,28.9818,-94.9186,1022.02,11111222 
TABS,ioos:station:wmo:42043:1,2011-02-05T01:30:00Z,28.9818,-94.9186,1022.23,11111222 
TABS,ioos:station:wmo:42043:1,2011-02-05T02:00:00Z,28.9818,-94.9186,1022.45,11111222 
TABS,ioos:station:wmo:42043:1,2011-02-05T02:30:00Z,28.9818,-94.9186,1022.42,11111222 
TABS,ioos:station:wmo:42043:1,2011-02-05T03:00:00Z,28.9818,-94.9186,1022.24,11111222 
TABS,ioos:station:wmo:42043:1,2011-02-05T03:30:00Z,28.9818,-94.9186,1022.09,11111222 
TABS,ioos:station:wmo:42043:1,2011-02-05T04:00:00Z,28.9818,-94.9186,1022.08,11111222 
TABS,ioos:station:wmo:42043:1,2011-02-05T04:30:00Z,28.9818,-94.9186,1022.07,11111222 
TABS,ioos:station:wmo:42043:1,2011-02-05T05:00:00Z,28.9818,-94.9186,1022.03,11111222 
TABS,ioos:station:wmo:42043:1,2011-02-05T05:30:00Z,28.9818,-94.9186,1022.14,11111222 
TABS,ioos:station:wmo:42043:1,2011-02-05T06:00:00Z,28.9818,-94.9186,1021.71,11111222 
TABS,ioos:station:wmo:42043:1,2011-02-05T06:30:00Z,28.9818,-94.9186,1021.19,11111222 
TABS,ioos:station:wmo:42043:1,2011-02-05T07:00:00Z,28.9818,-94.9186,1021.01,11111222 
TABS,ioos:station:wmo:42043:1,2011-02-05T07:30:00Z,28.9818,-94.9186,1020.81,11111222 
TABS,ioos:station:wmo:42043:1,2011-02-05T08:00:00Z,28.9818,-94.9186,1020.74,11111222 
TABS,ioos:station:wmo:42043:1,2011-02-05T08:30:00Z,28.9818,-94.9186,1020.24,11111222 
TABS,ioos:station:wmo:42043:1,2011-02-05T09:00:00Z,28.9818,-94.9186,1019.95,11111222 
TABS,ioos:station:wmo:42043:1,2011-02-05T09:30:00Z,28.9818,-94.9186,1019.78,11111222 
TABS,ioos:station:wmo:42043:1,2011-02-05T10:00:00Z,28.9818,-94.9186,1019.77,11111222 
TABS,ioos:station:wmo:42043:1,2011-02-05T10:30:00Z,28.9818,-94.9186,1019.62,11111222 
TABS,ioos:station:wmo:42043:1,2011-02-05T11:00:00Z,28.9818,-94.9186,1019.37,11111222 
TABS,ioos:station:wmo:42043:1,2011-02-05T11:30:00Z,28.9818,-94.9186,1019.41,11111222 
TABS,ioos:station:wmo:42043:1,2011-02-05T12:00:00Z,28.9818,-94.9186,1019.46,11111222 
TABS,ioos:station:wmo:42043:1,2011-02-05T12:30:00Z,28.9818,-94.9186,1019.16,11111222 
TABS,ioos:station:wmo:42043:1,2011-02-05T13:00:00Z,28.9818,-94.9186,1019.28,11111222 
TABS,ioos:station:wmo:42043:1,2011-02-05T13:30:00Z,28.9818,-94.9186,1019.21,11111222 
TABS,ioos:station:wmo:42043:1,2011-02-05T14:00:00Z,28.9818,-94.9186,1019.31,11111222 
TABS,ioos:station:wmo:42043:1,2011-02-05T14:30:00Z,28.9818,-94.9186,1019.26,11111222 
TABS,ioos:station:wmo:42043:1,2011-02-05T15:00:00Z,28.9818,-94.9186,1018.93,11111222 
TABS,ioos:station:wmo:42043:1,2011-02-05T15:30:00Z,28.9818,-94.9186,1018.83,11111222 
TABS,ioos:station:wmo:42043:1,2011-02-05T16:00:00Z,28.9818,-94.9186,1018.77,11111222 
TABS,ioos:station:wmo:42043:1,2011-02-05T16:30:00Z,28.9818,-94.9186,1018.85,11111222 
TABS,ioos:station:wmo:42043:1,2011-02-05T17:00:00Z,28.9818,-94.9186,1018.51,11111222 
TABS,ioos:station:wmo:42043:1,2011-02-05T17:30:00Z,28.9818,-94.9186,1018.08,11111222 
TABS,ioos:station:wmo:42043:1,2011-02-05T18:00:00Z,28.9818,-94.9186,1017.48,11111222 
TABS,ioos:station:wmo:42043:1,2011-02-05T18:30:00Z,28.9818,-94.9186,1016.97,11111222 
TABS,ioos:station:wmo:42043:1,2011-02-05T19:00:00Z,28.9818,-94.9186,1016.13,11111222 
TABS,ioos:station:wmo:42043:1,2011-02-05T19:30:00Z,28.9818,-94.9186,1015.61,11111222 
TABS,ioos:station:wmo:42043:1,2011-02-05T20:00:00Z,28.9818,-94.9186,1014.93,11111222 
TABS,ioos:station:wmo:42043:1,2011-02-05T20:30:00Z,28.9818,-94.9186,1014.77,11111222 
TABS,ioos:station:wmo:42043:1,2011-02-05T21:00:00Z,28.9818,-94.9186,1014.14,11111222 
TABS,ioos:station:wmo:42043:1,2011-02-05T21:30:00Z,28.9818,-94.9186,1013.85,11111222 
TABS,ioos:station:wmo:42043:1,2011-02-05T22:00:00Z,28.9818,-94.9186,1013.84,11111222 
TABS,ioos:station:wmo:42043:1,2011-02-05T22:30:00Z,28.9818,-94.9186,1013.74,11111222 
TABS,ioos:station:wmo:42043:1,2011-02-05T23:00:00Z,28.9818,-94.9186,1013.83,11111222 
TABS,ioos:station:wmo:42043:1,2011-02-05T23:30:00Z,28.9818,-94.9186,1013.71,11111222 
TABS,ioos:station:wmo:42043:1,2011-02-06T00:00:00Z,28.9818,-94.9186,1013.85,11111222 
TABS,ioos:station:wmo:42043:1,2011-02-06T00:30:00Z,28.9818,-94.9186,1014.07,11111222 
TABS,ioos:station:wmo:42043:1,2011-02-06T01:00:00Z,28.9818,-94.9186,1014.11,11111222 
TABS,ioos:station:wmo:42043:1,2011-02-06T01:30:00Z,28.9818,-94.9186,1014.08,11111222 
TABS,ioos:station:wmo:42043:1,2011-02-06T02:00:00Z,28.9818,-94.9186,1014.01,11111222 
TABS,ioos:station:wmo:42043:1,2011-02-06T02:30:00Z,28.9818,-94.9186,1013.9,11111222 
TABS,ioos:station:wmo:42043:1,2011-02-06T03:00:00Z,28.9818,-94.9186,1013.77,11111222 
TABS,ioos:station:wmo:42043:1,2011-02-06T03:30:00Z,28.9818,-94.9186,1014.0,11111222 
TABS,ioos:station:wmo:42043:1,2011-02-06T04:00:00Z,28.9818,-94.9186,1013.65,11111222 
TABS,ioos:station:wmo:42043:1,2011-02-06T04:30:00Z,28.9818,-94.9186,1013.87,11111222 
TABS,ioos:station:wmo:42043:1,2011-02-06T05:00:00Z,28.9818,-94.9186,1014.01,11111222 
TABS,ioos:station:wmo:42043:1,2011-02-06T05:30:00Z,28.9818,-94.9186,1014.01,11111222 
TABS,ioos:station:wmo:42043:1,2011-02-06T06:00:00Z,28.9818,-94.9186,1013.77,11111222 
TABS,ioos:station:wmo:42043:1,2011-02-06T06:30:00Z,28.9818,-94.9186,1013.37,11111222 
TABS,ioos:station:wmo:42043:1,2011-02-06T07:00:00Z,28.9818,-94.9186,1013.45,11111222 
TABS,ioos:station:wmo:42043:1,2011-02-06T07:30:00Z,28.9818,-94.9186,1013.62,11111222 
TABS,ioos:station:wmo:42043:1,2011-02-06T08:00:00Z,28.9818,-94.9186,1013.26,11111222 
TABS,ioos:station:wmo:42043:1,2011-02-06T08:30:00Z,28.9818,-94.9186,1013.12,11111222 
TABS,ioos:station:wmo:42043:1,2011-02-06T09:00:00Z,28.9818,-94.9186,1012.56,11111222 
TABS,ioos:station:wmo:42043:1,2011-02-06T09:30:00Z,28.9818,-94.9186,1012.59,11111222 
TABS,ioos:station:wmo:42043:1,2011-02-06T10:00:00Z,28.9818,-94.9186,1012.55,11111222 
TABS,ioos:station:wmo:42043:1,2011-02-06T10:30:00Z,28.9818,-94.9186,1012.6,11111222 
TABS,ioos:station:wmo:42043:1,2011-02-06T11:00:00Z,28.9818,-94.9186,1012.67,11111222 
TABS,ioos:station:wmo:42043:1,2011-02-06T11:30:00Z,28.9818,-94.9186,1012.78,11111222 
TABS,ioos:station:wmo:42043:1,2011-02-06T12:00:00Z,28.9818,-94.9186,1012.86,11111222 
TABS,ioos:station:wmo:42043:1,2011-02-06T12:30:00Z,28.9818,-94.9186,1012.84,11111222 
TABS,ioos:station:wmo:42043:1,2011-02-06T13:00:00Z,28.9818,-94.9186,1012.68,11111222 
TABS,ioos:station:wmo:42043:1,2011-02-06T13:30:00Z,28.9818,-94.9186,1012.81,11111222 
TABS,ioos:station:wmo:42043:1,2011-02-06T14:00:00Z,28.9818,-94.9186,1013.09,11111222 
TABS,ioos:station:wmo:42043:1,2011-02-06T14:30:00Z,28.9818,-94.9186,1013.25,11111222 
TABS,ioos:station:wmo:42043:1,2011-02-06T15:00:00Z,28.9818,-94.9186,1013.58,11111222 
TABS,ioos:station:wmo:42043:1,2011-02-06T15:30:00Z,28.9818,-94.9186,1013.93,11111222 
TABS,ioos:station:wmo:42043:1,2011-02-06T16:00:00Z,28.9818,-94.9186,1014.05,11111222 
TABS,ioos:station:wmo:42043:1,2011-02-06T16:30:00Z,28.9818,-94.9186,1014.31,11111222 
TABS,ioos:station:wmo:42043:1,2011-02-06T17:00:00Z,28.9818,-94.9186,1014.24,11111222 
TABS,ioos:station:wmo:42043:1,2011-02-06T17:30:00Z,28.9818,-94.9186,1013.89,11111222 
TABS,ioos:station:wmo:42043:1,2011-02-06T18:00:00Z,28.9818,-94.9186,1013.5,11111222 
TABS,ioos:station:wmo:42043:1,2011-02-06T18:30:00Z,28.9818,-94.9186,1013.02,11111222 